CW3224 Weather Reports


Display with metric or nautical units.
time (UTC)temp
F
wind
direction
speed
MPH
gust
MPH
rain 1hr
in
rain 24hr
in
rain mn
in
humidity
%
barometer
mb
20191023103200 53 46 1.0 2.0 0.16 0.55 0.39 96 1007.7
20191023102200 53 27 1.0 3.0 0.14 0.53 0.37 96 1007.7
20191023101159 53 215 0.0 3.0 0.06 0.45 0.29 96 1007.3
20191023100159 53 16 0.0 0.0 0.03 0.42 0.26 96 1007.2
20191023095159 53 17 0.0 0.0 0.02 0.41 0.25 96 1007.2
20191023094159 53 29 0.0 0.0 0.02 0.40 0.24 96 1006.9
20191023093158 53 29 0.0 0.0 0.01 0.39 0.23 96 1006.9
20191023092158 53 29 0.0 0.0 0.01 0.39 0.23 96 1006.9
20191023091155 53 29 0.0 0.0 0.01 0.39 0.23 96 1007.1
20191023090154 53 29 0.0 0.0 0.02 0.39 0.23 96 1007.2
20191023085152 53 29 0.0 0.0 0.02 0.39 0.23 96 1007.2
20191023084150 53 29 0.0 0.0 0.01 0.38 0.22 96 1007.3
20191023083150 53 29 0.0 0.0 0.02 0.38 0.22 96 1007.4
20191023082146 53 29 0.0 0.0 0.02 0.38 0.22 96 1007.4
20191023081145 53 29 0.0 0.0 0.02 0.38 0.22 96 1007.8
20191023080140 53 29 0.0 0.0 0.01 0.37 0.21 96 1007.9
20191023075139 53 29 0.0 0.0 0.03 0.37 0.21 96 1007.9
20191023074139 53 29 0.0 0.0 0.04 0.37 0.21 96 1008.3
20191023073136 53 29 0.0 0.0 0.05 0.36 0.20 96 1008.4
20191023072137 53 29 0.0 0.0 0.06 0.36 0.20 96 1008.4
20191023071137 53 29 0.0 0.0 0.07 0.36 0.20 96 1008.9
20191023070138 53 29 0.0 0.0 0.08 0.36 0.20 96 1009.3
20191023065135 53 29 0.0 0.0 0.08 0.34 0.19 96 1009.3
20191023064131 53 29 0.0 0.0 0.09 0.33 0.17 96 1009.4
20191023063129 53 29 0.0 0.0 0.08 0.31 0.15 96 1009.9
20191023062130 53 29 0.0 0.0 0.09 0.30 0.14 96 1009.9
20191023061129 53 29 0.0 0.0 0.10 0.29 0.13 96 1009.7
20191023060126 53 29 0.0 0.0 0.09 0.28 0.12 95 1009.9
20191023055127 53 29 0.0 0.0 0.08 0.26 0.10 95 1009.9
20191023054128 53 29 0.0 0.0 0.06 0.24 0.08 95 1010.1
20191023053128 53 29 0.0 0.0 0.05 0.23 0.07 95 1010.4
20191023052128 53 29 0.0 3.0 0.04 0.21 0.05 95 1010.4
20191023051128 53 29 0.0 0.0 0.02 0.19 0.03 95 1010.8
20191023050128 53 29 0.0 0.0 0.03 0.19 0.03 95 1011.1
20191023045128 53 29 0.0 0.0 0.02 0.18 0.02 95 1011.1
20191023044128 53 4 0.0 0.0 0.03 0.18 0.02 95 1011.4
20191023043128 53 4 0.0 2.0 0.05 0.18 0.02 95 1011.7
20191023042128 53 71 0.0 2.0 0.05 0.17 0.01 95 1011.7
20191023041128 53 71 0.0 2.0 0.06 0.17 0.01 95 1012.0
20191023040127 53 71 0.0 0.0 0.06 0.16 0.00 95 1012.1
20191023035127 53 71 1.0 3.0 0.08 0.16 0.16 95 1012.1
20191023034333 53 85 0.0 2.0 0.08 0.15 0.15 95 1012.6
20191023032115 52 22 0.0 0.0 0.06 0.12 0.12 95 1013.3
20191023031115 53 22 0.0 0.0 0.06 0.11 0.11 95 1013.1
20191023030111 53 20 0.0 0.0 0.06 0.10 0.10 95 1013.2
20191023025109 52 21 1.0 2.0 0.05 0.08 0.09 95 1013.6
20191023024104 52 20 0.0 1.0 0.04 0.07 0.07 95 1013.6
20191023023059 52 20 1.0 3.0 0.04 0.06 0.06 94 1013.6
20191023022058 53 20 1.0 3.0 0.04 0.06 0.06 94 1014.2
20191023021055 52 75 1.0 6.0 0.03 0.05 0.05 94 1014.2
20191023020056 52 56 1.0 5.0 0.03 0.04 0.04 94 1014.2
20191023015057 52 124 1.0 5.0 0.02 0.03 0.03 94 1014.2
20191023014057 52 42 2.0 5.0 0.02 0.03 0.03 94 1014.2
20191023013056 52 35 1.0 5.0 0.01 0.02 0.02 94 1014.6
20191023012056 52 90 2.0 5.0 0.01 0.02 0.02 94 1014.7
20191023011056 52 89 3.0 9.0 0.01 0.02 0.02 94 1014.7
20191023010053 52 7 2.0 7.0 0.00 0.01 0.01 94 1014.8
20191023005052 52 91 2.0 7.0 0.00 0.01 0.01 94 1015.1
20191023004053 52 18 3.0 11.0 0.00 0.01 0.01 94 1015.1
20191023003049 52 145 2.0 7.0 0.00 0.01 0.01 94 1015.6
20191023002050 52 98 3.0 9.0 0.00 0.01 0.01 94 1015.8
20191023001049 52 64 2.0 5.0 0.01 0.01 0.01 94 1015.8
20191023000044 52 155 3.0 10.0 0.01 0.01 0.01 94 1015.5
20191022235044 52 82 2.0 9.0 0.01 0.01 0.01 94 1015.8
20191022234045 51 96 1.0 4.0 0.01 0.01 0.01 94 1015.8
20191022233043 51 101 2.0 5.0 0.01 0.01 0.01 93 1016.3
20191022232040 51 103 1.0 3.0 0.01 0.01 0.01 93 1016.7
20191022231038 51 105 1.0 5.0 0.00 0.00 0.00 93 1016.7
20191022230036 51 48 1.0 5.0 0.00 0.00 0.00 93 1016.8
20191022225037 51 136 1.0 5.0 0.00 0.00 0.00 93 1016.4
20191022224026 51 66 2.0 6.0 0.00 0.00 0.00 92 1016.4
20191022223027 51 108 1.0 7.0 0.00 0.00 0.00 92 1016.9
20191022222022 52 105 2.0 8.0 0.00 0.00 0.00 90 1016.8
20191022221021 52 51 2.0 8.0 0.00 0.00 0.00 89 1016.8
20191022220019 52 143 3.0 8.0 0.00 0.00 0.00 89 1016.9
20191022215021 53 73 2.0 5.0 0.00 0.00 0.00 88 1016.8
20191022214015 53 104 3.0 10.0 0.00 0.00 0.00 88 1016.8
20191022213015 53 56 2.0 7.0 0.00 0.00 0.00 88 1016.4
20191022212017 53 23 3.0 6.0 0.00 0.00 0.00 88 1017.3
20191022211015 53 79 1.0 5.0 0.00 0.00 0.00 88 1017.3
20191022210015 53 129 2.0 8.0 0.00 0.00 0.00 88 1016.6
20191022205015 53 91 3.0 8.0 0.00 0.00 0.00 87 1016.4
20191022204015 53 62 2.0 9.0 0.00 0.00 0.00 87 1016.4
20191022203017 53 6 3.0 9.0 0.00 0.00 0.00 86 1016.8
20191022202020 53 301 4.0 8.0 0.00 0.00 0.00 86 1016.8
20191022201017 54 301 3.0 8.0 0.00 0.00 0.00 86 1016.8
20191022200016 54 301 3.0 10.0 0.00 0.00 0.00 86 1016.8
20191022195011 54 301 3.0 8.0 0.00 0.00 0.00 87 1017.4
20191022194013 54 70 2.0 6.0 0.00 0.00 0.00 88 1017.4
20191022193006 54 119 2.0 6.0 0.00 0.00 0.00 87 1017.8
20191022191959 54 39 1.0 7.0 0.00 0.00 0.00 87 1018.0
20191022190956 54 301 1.0 4.0 0.00 0.00 0.00 86 1018.0
20191022185955 55 301 2.0 5.0 0.00 0.00 0.00 85 1017.9
20191022185000 56 301 1.0 5.0 0.00 0.00 0.00 83 1018.2
20191022183955 56 142 1.0 6.0 0.00 0.00 0.00 81 1018.2
20191022182954 56 200 2.0 7.0 0.00 0.00 0.00 80 1018.3
20191022181956 57 209 2.0 7.0 0.00 0.00 0.00 79 1018.5
20191022181454 57 47 2.0 6.0 0.00 0.00 0.00 79 1018.5
20191022175951 57 65 1.0 4.0 0.00 0.00 0.00 80 1018.5
20191022174951 57 75 1.0 5.0 0.00 0.00 0.00 80 1018.9
20191022173952 57 81 1.0 4.0 0.00 0.00 0.00 80 1018.9
20191022172951 56 301 1.0 3.0 0.00 0.00 0.00 80 1019.1
20191022171951 56 301 1.0 3.0 0.00 0.00 0.00 80 1019.1
20191022170951 56 52 1.0 4.0 0.00 0.00 0.00 81 1019.1
20191022165953 56 301 1.0 5.0 0.00 0.00 0.00 81 1019.0
20191022164953 56 20 1.0 6.0 0.00 0.00 0.00 80 1019.1
20191022163949 57 46 3.0 9.0 0.00 0.00 0.00 81 1019.1
20191022162950 56 95 3.0 7.0 0.00 0.00 0.00 79 1019.4
20191022161949 55 87 2.0 5.0 0.00 0.00 0.00 81 1019.4
20191022160949 56 245 3.0 7.0 0.00 0.00 0.00 81 1019.4
20191022155947 55 93 2.0 8.0 0.00 0.00 0.00 82 1019.6
20191022154948 54 52 2.0 6.0 0.00 0.00 0.00 84 1019.6
20191022153943 53 135 1.0 5.0 0.00 0.00 0.00 84 1019.6
20191022152943 53 91 3.0 7.0 0.00 0.00 0.00 86 1019.9
20191022151949 53 159 2.0 7.0 0.00 0.00 0.00 85 1019.9
20191022150941 52 136 1.0 5.0 0.00 0.00 0.00 87 1019.9
20191022145944 51 115 1.0 4.0 0.00 0.00 0.00 88 1020.0
20191022144940 51 93 2.0 5.0 0.00 0.00 0.00 88 1019.9
20191022143935 50 141 2.0 6.0 0.00 0.00 0.00 88 1019.9
20191022142935 50 77 2.0 7.0 0.00 0.00 0.00 89 1020.0
20191022141934 49 39 2.0 8.0 0.00 0.00 0.00 89 1020.5
20191022140928 48 51 1.0 6.0 0.00 0.00 0.00 89 1020.5
20191022135928 47 10 0.0 0.0 0.00 0.00 0.00 90 1020.9
20191022134928 46 10 1.0 3.0 0.00 0.00 0.00 91 1021.2
20191022133928 45 53 0.0 0.0 0.00 0.00 0.00 92 1021.2
20191022132928 45 53 0.0 0.0 0.00 0.00 0.00 93 1021.6
20191022131917 44 53 0.0 0.0 0.00 0.00 0.00 93 1021.6
20191022130920 44 53 0.0 0.0 0.00 0.00 0.00 94 1021.6
20191022125916 43 53 0.0 0.0 0.00 0.00 0.00 94 1021.2
20191022124913 43 14 0.0 0.0 0.00 0.00 0.00 94 1022.1
20191022123911 42 14 0.0 0.0 0.00 0.00 0.00 94 1022.1
20191022122917 42 14 0.0 0.0 0.00 0.00 0.00 94 1021.4
20191022121907 42 14 0.0 0.0 0.00 0.00 0.00 94 1021.0
20191022120907 41 14 0.0 0.0 0.00 0.00 0.00 94 1021.0
20191022115918 41 14 0.0 0.0 0.00 0.00 0.00 94 1021.0
20191022114904 41 14 0.0 0.0 0.00 0.00 0.00 94 1020.5
20191022113900 40 14 0.0 0.0 0.00 0.00 0.00 94 1020.5
20191022112902 40 14 0.0 0.0 0.00 0.00 0.00 94 1020.5
20191022111859 40 14 0.0 0.0 0.00 0.00 0.00 94 1020.6
20191022110859 40 14 0.0 0.0 0.00 0.00 0.00 94 1020.6
20191022105859 40 14 0.0 0.0 0.00 0.00 0.00 94 1020.9
20191022104857 40 14 0.0 0.0 0.00 0.00 0.00 94 1020.5
20191022103856 40 14 0.0 0.0 0.00 0.00 0.00 94 1020.5